This demonstration page uses our WeatherBlox Daily Observations layout. Learn more.

Left ArrowRight Arrow

41.12389, -100.76542

Hourly Observations for September 15, 2016

Temp ( °F °C ) Dew Point ( °F °C ) Humidity (%) Winds ( mph kmh ) Pressure ( in mb ) Visibility ( mi km ) Precip ( " mm )
12:53 am 00:53 Cloudy 58 14.4 55 12.8 90 90 SE 9 15 30.05 1018 10 16 0.00 0.00
1:53 am 01:53 Cloudy 60 15.6 56 13.3 86 86 SSE 12 19 30.03 1017 10 16 0.00 0.00
2:53 am 02:53 Cloudy 60 15.6 57 13.9 90 90 ESE 13 20 29.99 1016 7 11 0.00 0.00
3:53 am 03:53 Cloudy 61 16.1 59 15 93 93 VRB 6 9 29.99 1016 9 14 0.00 0.00
4:07 am 04:07 Cloudy 61 16.1 59 15 93 93 S 7 11 29.97 1015 10 16 0.00 0.00
4:53 am 04:53 Cloudy 62 16.7 60 15.6 93 93 S 7 11 29.97 1015 8 13 0.00 0.00
5:53 am 05:53 Cloudy with Light Rain 63 17.2 60 15.6 90 90 Calm 29.97 1015 3 5 0.00 0.03
6:01 am 06:01 Cloudy with Rain 63 17.2 60 15.6 90 90 Calm 29.94 1014 2 3 0.02 0.51
6:15 am 06:15 Cloudy with Light Rain 63 17 61 16 94 94 N 3 6 29.94 1014 2 3 0.00 0.00
6:48 am 06:48 Cloudy with Light Rain 63 17 61 16 94 94 NE 8 13 29.91 1013 4 6 0.05 1.27
6:53 am 06:53 Cloudy with Mist and Fog 62 16.7 60 15.6 93 93 NE 7 11 29.96 1015 5 8 0.05 1.27
7:53 am 07:53 Cloudy 62 16.7 59 15 90 90 NE 5 7 29.97 1015 10 16 0.00 0.00
8:53 am 08:53 Cloudy 64 17.8 61 16.1 90 90 Calm 29.96 1014 8 13 0.00 0.00
9:45 am 09:45 Cloudy 64 18 63 17 94 94 S 3 6 29.91 1013 7 11 0.00 0.00
9:53 am 09:53 Cloudy with Mist and Fog 66 18.9 63 17.2 90 90 S 3 6 29.96 1014 6 10 0.00 0.00
10:08 am 10:08 Cloudy with Mist and Fog 66 19 63 17 88 88 Calm 29.91 1013 6 10 0.00 0.00
10:21 am 10:21 Cloudy with Mist and Fog 66 19 63 17 88 88 Calm 29.91 1013 6 10 0.00 0.00
10:30 am 10:30 Cloudy with Mist and Fog 66 19 63 17 88 88 WSW 3 6 29.91 1013 6 10 0.00 0.00
10:51 am 10:51 Cloudy 66 19 63 17 88 88 W 6 9 29.94 1014 7 11 0.00 0.00
10:53 am 10:53 Cloudy 67 19.4 63 17.2 87 87 W 3 6 29.97 1015 7 11 0.00 0.00
11:01 am 11:01 Cloudy 66 19 63 17 88 88 NW 6 9 29.91 1013 8 13 0.00 0.00
11:12 am 11:12 Cloudy 66 19 63 17 88 88 NW 6 9 29.91 1013 9 14 0.00 0.00
11:53 am 11:53 Cloudy 68 20 62 16.7 81 81 WNW 6 9 29.96 1015 10 16 0.00 0.00
12:31 pm 12:31 Cloudy 70 21 63 17 78 78 WNW 6 9 29.88 1012 8 13 0.00 0.00
12:46 pm 12:46 Cloudy 70 21 63 17 78 78 NW 6 9 29.88 1012 8 13 0.00 0.00
12:53 pm 12:53 Cloudy 71 21.7 62 16.7 73 73 NW 6 9 29.96 1014 8 13 0.00 0.00
1:53 pm 13:53 Cloudy with Haze 70 21.1 61 16.1 73 73 NW 9 15 29.95 1014 6 10 0.00 0.00
2:53 pm 14:53 Mostly Cloudy 74 23.3 61 16.1 64 64 VRB 3 6 29.92 1013 10 16 0.00 0.00
3:14 pm 15:14 Mostly Sunny 75 24 61 16 61 61 Calm 29.83 1010 10 16 0.00 0.00
3:53 pm 15:53 Sunny 77 25 61 16.1 58 58 S 6 9 29.89 1012 10 16 0.00 0.00
4:53 pm 16:53 Sunny 78 25.6 61 16.1 56 56 SE 5 7 29.86 1011 10 16 0.00 0.00
5:53 pm 17:53 Sunny 76 24.4 60 15.6 58 58 SE 6 9 29.86 1011 10 16 0.00 0.00
6:53 pm 18:53 Sunny 75 23.9 61 16.1 62 62 Calm 29.88 1012 10 16 0.00 0.00
7:53 pm 19:53 Mostly Cloudy 67 19.4 47 8.3 49 49 NNW 20 31 29.92 1013 10 16 0.00 0.00
8:53 pm 20:53 Mostly Clear 63 17.2 49 9.4 60 60 WNW 10 17 29.94 1014 10 16 0.00 0.00
9:53 pm 21:53 Mostly Clear 62 16.7 49 9.4 62 62 NNW 5 7 29.94 1014 10 16 0.00 0.00
10:53 pm 22:53 Partly Cloudy 60 15.6 51 10.6 72 72 S 3 6 29.94 1014 10 16 0.00 0.00
11:53 pm 23:53 Clear 58 14.4 51 10.6 78 78 E 6 9 29.94 1014 10 16 0.00 0.00

Powered by AerisWeather